Regional Weather Roundup
Issued by NWS

Home | Current Version | Previous Version | Text Only | Print | Product List | Glossary On
Versions: 1 2 3 4 5 6 7 8 9 10 11 12 13 14 15 16 17 18 19 20 21 22 23 24 25 26 27 28 29 30 31 32 33 34 35 36 37 38 39 40 41 42 43 44 45 46 47 48 49 50
000
ASCA42 TJSJ 211211
RWRPR
PUERTO RICO/U.S. VIRGIN ISLANDS HOURLY WEATHER ROUNDUP
NATIONAL WEATHER SERVICE SAN JUAN PR
800 AM AST SUN SEP 21 2014

PRZ001-004-211300-
PUERTO RICO

CITY           SKY/WX    TMP DP  RH WIND       PRES   REMARKS
SAN JUAN LMM   MOSUNNY   82  75  78 SE3       30.02R
PONCE          MOSUNNY   82  75  78 N6        29.96S
AGUADILLA      SUNNY     81  73  78 E9        30.05
CEIBA          MOSUNNY   84  75  74 E7        30.04R HX  92
$$

PRZ006-007-211300-
U.S. VIRGIN ISLANDS

CITY           SKY/WX    TMP DP  RH WIND       PRES   REMARKS
$$

HOURLY WEATHER ROUNDUP FOR THE NEWS MEDIA

CITY           SKY/WX    TMP DP  RH WIND       PRES   REMARKS
MIAMI          PTSUNNY   75  72  90 CALM      30.00R
ORLANDO        MOCLDY    72  70  93 CALM      29.99R FOG
NEW YORK       PTSUNNY   69  66  90 N5        29.91S FOG
NEWARK         PTSUNNY   69  67  93 CALM      29.90F FOG
CHICAGO        PTCLDY    58  51  78 W14G24    29.79S
HARTFORD       PTSUNNY   69  66  90 SE7       29.95F
BOSTON         PTSUNNY   69  64  84 S7        29.94F
DALLAS         CLEAR     71  66  84 E5        30.06R
PHILADELPHIA   PTSUNNY   68  65  90 NE6       29.90F FOG



USA.gov is the U.S. government's official web portal to all federal, state and local government web resources and services.